Year,Month,Day,Hour,Minute,Value (Times are PST for temperature in C)
2014,11,13,11,10,6.30
2014,11,13,11,11,6.30
2014,11,13,11,12,6.30
2014,11,13,11,13,6.30
2014,11,13,11,14,6.30
2014,11,13,11,15,6.30
2014,11,13,11,16,6.40
2014,11,13,11,17,6.30
2014,11,13,11,18,6.40
2014,11,13,11,19,6.40
2014,11,13,11,20,6.40
2014,11,13,11,21,6.40
2014,11,13,11,22,6.40
2014,11,13,11,23,6.30
2014,11,13,11,24,6.30
2014,11,13,11,25,6.30
2014,11,13,11,26,6.30
2014,11,13,11,27,6.30
2014,11,13,11,28,6.30
2014,11,13,11,29,6.30
2014,11,13,11,30,6.30
2014,11,13,11,31,6.30
2014,11,13,11,32,6.40
2014,11,13,11,33,6.40
2014,11,13,11,34,6.40
2014,11,13,11,35,6.40
2014,11,13,11,36,6.40
2014,11,13,11,37,6.40
2014,11,13,11,38,6.40
2014,11,13,11,39,6.40
2014,11,13,11,40,6.50
2014,11,13,11,41,6.50
2014,11,13,11,42,6.40
2014,11,13,11,43,6.50
2014,11,13,11,44,6.50
2014,11,13,11,45,6.50
2014,11,13,11,46,6.50
2014,11,13,11,47,6.50
2014,11,13,11,48,6.50
2014,11,13,11,49,6.40
2014,11,13,11,50,6.40
2014,11,13,11,51,6.50
2014,11,13,11,52,6.40
2014,11,13,11,53,6.40
2014,11,13,11,54,6.40
2014,11,13,11,55,6.40
2014,11,13,11,56,6.50
2014,11,13,11,57,6.50
2014,11,13,11,58,6.50
2014,11,13,11,59,6.50
2014,11,13,12,00,6.50
2014,11,13,12,01,6.40
2014,11,13,12,02,6.40
2014,11,13,12,03,6.40
2014,11,13,12,04,6.50
2014,11,13,12,05,6.50
2014,11,13,12,06,6.50
2014,11,13,12,07,6.50
2014,11,13,12,08,6.50
2014,11,13,12,09,6.60
2014,11,13,12,10,6.70
2014,11,13,12,11,6.70
2014,11,13,12,12,6.70
2014,11,13,12,13,6.70
2014,11,13,12,14,6.70
2014,11,13,12,15,6.70
2014,11,13,12,16,6.70
2014,11,13,12,17,6.70
2014,11,13,12,18,6.80
2014,11,13,12,19,6.80
2014,11,13,12,20,6.90
2014,11,13,12,21,7.00
2014,11,13,12,22,7.00
2014,11,13,12,23,7.00
2014,11,13,12,24,7.00
2014,11,13,12,25,6.90
2014,11,13,12,26,6.90
2014,11,13,12,27,6.90
2014,11,13,12,28,7.00
2014,11,13,12,29,6.90
2014,11,13,12,30,6.90
2014,11,13,12,31,7.00
2014,11,13,12,32,7.00
2014,11,13,12,33,7.00
2014,11,13,12,34,6.90
2014,11,13,12,35,6.80
2014,11,13,12,36,6.80
2014,11,13,12,37,6.90
2014,11,13,12,38,6.90
2014,11,13,12,39,7.00
2014,11,13,12,40,7.10
2014,11,13,12,41,7.10
2014,11,13,12,42,7.10
2014,11,13,12,43,7.10
2014,11,13,12,44,7.10
2014,11,13,12,45,7.10
2014,11,13,12,46,7.10
2014,11,13,12,47,7.00
2014,11,13,12,48,7.00
2014,11,13,12,49,7.00
2014,11,13,12,50,7.00
2014,11,13,12,51,7.00
2014,11,13,12,52,6.90
2014,11,13,12,53,6.90
2014,11,13,12,54,6.90
2014,11,13,12,55,6.90
2014,11,13,12,56,6.90
2014,11,13,12,57,6.90
2014,11,13,12,58,6.90
2014,11,13,12,59,6.90
2014,11,13,13,00,6.90
2014,11,13,13,01,6.90
2014,11,13,13,02,7.00
2014,11,13,13,03,7.10
2014,11,13,13,04,7.10
2014,11,13,13,05,7.20
2014,11,13,13,06,7.20
2014,11,13,13,07,7.20
2014,11,13,13,08,7.20
2014,11,13,13,09,7.10
2014,11,13,13,10,7.10
2014,11,13,13,11,7.10
2014,11,13,13,12,7.10
2014,11,13,13,13,7.10
2014,11,13,13,14,7.10
2014,11,13,13,15,7.10
2014,11,13,13,16,7.00
2014,11,13,13,17,7.00
2014,11,13,13,18,7.10
2014,11,13,13,19,7.10
2014,11,13,13,20,7.10
2014,11,13,13,21,7.20
2014,11,13,13,22,7.20
2014,11,13,13,23,7.20
2014,11,13,13,24,7.20
2014,11,13,13,25,7.20
2014,11,13,13,26,7.20
2014,11,13,13,27,7.20
2014,11,13,13,28,7.20
2014,11,13,13,29,7.30
2014,11,13,13,30,7.20
2014,11,13,13,31,7.20
2014,11,13,13,32,7.30
2014,11,13,13,33,7.30
2014,11,13,13,34,7.40
2014,11,13,13,35,7.40
2014,11,13,13,36,7.50
2014,11,13,13,37,7.50
2014,11,13,13,38,7.50
2014,11,13,13,39,7.60
2014,11,13,13,40,7.60
2014,11,13,13,41,7.60
2014,11,13,13,42,7.60
2014,11,13,13,43,7.50
2014,11,13,13,44,7.50
2014,11,13,13,45,7.40
2014,11,13,13,46,7.30
2014,11,13,13,47,7.30
2014,11,13,13,48,7.30
2014,11,13,13,49,7.30
2014,11,13,13,50,7.30
2014,11,13,13,51,7.30
2014,11,13,13,52,7.30
2014,11,13,13,53,7.40
2014,11,13,13,54,7.30
2014,11,13,13,55,7.30
2014,11,13,13,56,7.30
2014,11,13,13,57,7.30
2014,11,13,13,58,7.30
2014,11,13,13,59,7.30
2014,11,13,14,00,7.30
2014,11,13,14,01,7.30
2014,11,13,14,02,7.40
2014,11,13,14,03,7.40
2014,11,13,14,04,7.40
2014,11,13,14,05,7.40
2014,11,13,14,06,7.40
2014,11,13,14,07,7.40
2014,11,13,14,08,7.30
2014,11,13,14,09,7.30
2014,11,13,14,10,7.30
2014,11,13,14,11,7.30
2014,11,13,14,12,7.30
2014,11,13,14,13,7.20
2014,11,13,14,14,7.20
2014,11,13,14,15,7.20
2014,11,13,14,16,7.20
2014,11,13,14,17,7.30
2014,11,13,14,18,7.30
2014,11,13,14,19,7.30
2014,11,13,14,20,7.30
2014,11,13,14,21,7.30
2014,11,13,14,22,7.30
2014,11,13,14,23,7.40
2014,11,13,14,24,7.40
2014,11,13,14,25,7.40
2014,11,13,14,26,7.40
2014,11,13,14,27,7.40
2014,11,13,14,28,7.40
2014,11,13,14,29,7.40
2014,11,13,14,30,7.50
2014,11,13,14,31,7.50
2014,11,13,14,32,7.50
2014,11,13,14,33,7.50
2014,11,13,14,34,7.40
2014,11,13,14,35,7.40
2014,11,13,14,36,7.40
2014,11,13,14,37,7.30
2014,11,13,14,38,7.40
2014,11,13,14,39,7.40
2014,11,13,14,40,7.40
2014,11,13,14,41,7.40
2014,11,13,14,42,7.40
2014,11,13,14,43,7.40
2014,11,13,14,44,7.40
2014,11,13,14,45,7.40
2014,11,13,14,46,7.40
2014,11,13,14,47,7.40
2014,11,13,14,48,7.40
2014,11,13,14,49,7.30
2014,11,13,14,50,7.30
2014,11,13,14,51,7.30
2014,11,13,14,52,7.30
2014,11,13,14,53,7.20
2014,11,13,14,54,7.20
2014,11,13,14,55,7.20
2014,11,13,14,56,7.20
2014,11,13,14,57,7.20
2014,11,13,14,58,7.20
2014,11,13,14,59,7.20
2014,11,13,15,00,7.20
2014,11,13,15,01,7.20
2014,11,13,15,02,7.20
2014,11,13,15,03,7.20
2014,11,13,15,04,7.20
2014,11,13,15,05,7.20
2014,11,13,15,06,7.20
2014,11,13,15,07,7.20
2014,11,13,15,08,7.20
2014,11,13,15,09,7.20
2014,11,13,15,10,7.20
2014,11,13,15,11,7.20
2014,11,13,15,12,7.20
2014,11,13,15,13,7.20
2014,11,13,15,14,7.20
2014,11,13,15,15,7.20
2014,11,13,15,16,7.20
2014,11,13,15,17,7.20
2014,11,13,15,18,7.20
2014,11,13,15,19,7.20
2014,11,13,15,20,7.20
2014,11,13,15,21,7.20
2014,11,13,15,22,7.20
2014,11,13,15,23,7.20
2014,11,13,15,24,7.20
2014,11,13,15,25,7.20
2014,11,13,15,26,7.20
2014,11,13,15,27,7.20
2014,11,13,15,28,7.20
2014,11,13,15,29,7.20
2014,11,13,15,30,7.20
2014,11,13,15,31,7.20
2014,11,13,15,32,7.20
2014,11,13,15,33,7.10
2014,11,13,15,34,7.10
2014,11,13,15,35,7.10
2014,11,13,15,36,7.10
2014,11,13,15,37,7.10
2014,11,13,15,38,7.10
2014,11,13,15,39,7.10
2014,11,13,15,40,7.00
2014,11,13,15,41,7.00
2014,11,13,15,42,7.00
2014,11,13,15,43,7.00
2014,11,13,15,44,7.00
2014,11,13,15,45,7.00
2014,11,13,15,46,7.00
2014,11,13,15,47,7.00
2014,11,13,15,48,7.00
2014,11,13,15,49,6.90
2014,11,13,15,50,7.00
2014,11,13,15,51,7.00
2014,11,13,15,52,7.00
2014,11,13,15,53,7.00
2014,11,13,15,54,7.00
2014,11,13,15,55,7.00
2014,11,13,15,56,7.10
2014,11,13,15,57,7.00
2014,11,13,15,58,7.00
2014,11,13,15,59,7.00
2014,11,13,16,00,7.00
2014,11,13,16,01,7.00
2014,11,13,16,02,7.00
2014,11,13,16,03,7.00
2014,11,13,16,04,6.90
2014,11,13,16,05,7.00
2014,11,13,16,06,6.90
2014,11,13,16,07,6.90
2014,11,13,16,08,6.90
2014,11,13,16,09,6.90
2014,11,13,16,10,6.90
2014,11,13,16,11,6.80
2014,11,13,16,12,6.80
2014,11,13,16,13,6.80
2014,11,13,16,14,6.80
2014,11,13,16,15,6.70
2014,11,13,16,16,6.70
2014,11,13,16,17,6.70
2014,11,13,16,18,6.60
2014,11,13,16,19,6.60
2014,11,13,16,20,6.50
2014,11,13,16,21,6.40
2014,11,13,16,22,6.30
2014,11,13,16,23,6.30
2014,11,13,16,24,6.30
2014,11,13,16,25,6.30
2014,11,13,16,26,6.20
2014,11,13,16,27,6.20
2014,11,13,16,28,6.20
2014,11,13,16,29,6.20
2014,11,13,16,30,6.20
2014,11,13,16,31,6.10
2014,11,13,16,32,6.10
2014,11,13,16,33,6.10
2014,11,13,16,34,6.10
2014,11,13,16,35,6.10
2014,11,13,16,36,6.00
2014,11,13,16,37,6.00
2014,11,13,16,38,6.00
2014,11,13,16,39,5.90
2014,11,13,16,40,5.90
2014,11,13,16,41,5.90
2014,11,13,16,42,5.90
2014,11,13,16,43,5.90
2014,11,13,16,44,5.90
2014,11,13,16,45,5.80
2014,11,13,16,46,5.80
2014,11,13,16,47,5.80
2014,11,13,16,48,5.80
2014,11,13,16,49,5.70
2014,11,13,16,50,5.70
2014,11,13,16,51,5.60
2014,11,13,16,52,5.60
2014,11,13,16,53,5.60
2014,11,13,16,54,5.50
2014,11,13,16,55,5.50
2014,11,13,16,56,5.40
2014,11,13,16,57,5.50
2014,11,13,16,58,5.50
2014,11,13,16,59,5.50
2014,11,13,17,00,5.50
2014,11,13,17,01,5.50
2014,11,13,17,02,5.60
2014,11,13,17,03,5.60
2014,11,13,17,04,5.50
2014,11,13,17,05,5.50
2014,11,13,17,06,5.50
2014,11,13,17,07,5.40
2014,11,13,17,08,5.40
2014,11,13,17,09,5.40
2014,11,13,17,10,5.30
2014,11,13,17,11,5.30
2014,11,13,17,12,5.30
2014,11,13,17,13,5.30
2014,11,13,17,14,5.20
2014,11,13,17,15,5.20
2014,11,13,17,16,5.10
2014,11,13,17,17,5.10
2014,11,13,17,18,5.10
2014,11,13,17,19,5.00
2014,11,13,17,20,5.00
2014,11,13,17,21,4.90
2014,11,13,17,22,4.90
2014,11,13,17,23,4.90
2014,11,13,17,24,4.90
2014,11,13,17,25,4.90
2014,11,13,17,26,4.90
2014,11,13,17,27,4.80
2014,11,13,17,28,4.80
2014,11,13,17,29,4.70
2014,11,13,17,30,4.70
2014,11,13,17,31,4.60
2014,11,13,17,32,4.50
2014,11,13,17,33,4.40
2014,11,13,17,34,4.40
2014,11,13,17,35,4.30
2014,11,13,17,36,4.30
2014,11,13,17,37,4.30
2014,11,13,17,38,4.20
2014,11,13,17,39,4.20
2014,11,13,17,40,4.20
2014,11,13,17,41,4.20
2014,11,13,17,42,4.10
2014,11,13,17,43,4.10
2014,11,13,17,44,4.00
2014,11,13,17,45,4.00
2014,11,13,17,46,3.90
2014,11,13,17,47,3.90
2014,11,13,17,48,3.80
2014,11,13,17,49,3.80
2014,11,13,17,50,3.80
2014,11,13,17,51,3.70
2014,11,13,17,52,3.70
2014,11,13,17,53,3.70
2014,11,13,17,54,3.60
2014,11,13,17,55,3.60
2014,11,13,17,56,3.50
2014,11,13,17,57,3.50
2014,11,13,17,58,3.40
2014,11,13,17,59,3.40
2014,11,13,18,00,3.40
2014,11,13,18,01,3.30
2014,11,13,18,02,3.30
2014,11,13,18,03,3.20
2014,11,13,18,04,3.20
2014,11,13,18,05,3.20
2014,11,13,18,06,3.10
2014,11,13,18,07,3.10
2014,11,13,18,08,3.00
2014,11,13,18,09,3.00
2014,11,13,18,10,2.90
2014,11,13,18,11,2.90
2014,11,13,18,12,2.90
2014,11,13,18,13,2.80
2014,11,13,18,14,2.80
2014,11,13,18,15,2.70
2014,11,13,18,16,2.70
2014,11,13,18,17,2.70
2014,11,13,18,18,2.60
2014,11,13,18,19,2.60
2014,11,13,18,20,2.50
2014,11,13,18,21,2.50
2014,11,13,18,22,2.50
2014,11,13,18,23,2.40
2014,11,13,18,24,2.40
2014,11,13,18,25,2.40
2014,11,13,18,26,2.30
2014,11,13,18,27,2.30
2014,11,13,18,28,2.30
2014,11,13,18,29,2.20
2014,11,13,18,30,2.20
2014,11,13,18,31,2.20
2014,11,13,18,32,2.10
2014,11,13,18,33,2.10
2014,11,13,18,34,2.10
2014,11,13,18,35,2.00
2014,11,13,18,36,1.90
2014,11,13,18,37,1.90
2014,11,13,18,38,1.80
2014,11,13,18,39,1.80
2014,11,13,18,40,1.80
2014,11,13,18,41,1.70
2014,11,13,18,42,1.70
2014,11,13,18,43,1.70
2014,11,13,18,44,1.70
2014,11,13,18,45,1.70
2014,11,13,18,46,1.60
2014,11,13,18,47,1.60
2014,11,13,18,48,1.50
2014,11,13,18,49,1.50
2014,11,13,18,50,1.50
2014,11,13,18,51,1.50
2014,11,13,18,52,1.50
2014,11,13,18,53,1.40
2014,11,13,18,54,1.40
2014,11,13,18,55,1.40
2014,11,13,18,56,1.40
2014,11,13,18,57,1.40
2014,11,13,18,58,1.40
2014,11,13,18,59,1.40
2014,11,13,19,00,1.40
2014,11,13,19,01,1.50
2014,11,13,19,02,1.50
2014,11,13,19,03,1.50
2014,11,13,19,04,1.50
2014,11,13,19,05,1.50
2014,11,13,19,06,1.50
2014,11,13,19,07,1.50
2014,11,13,19,08,1.50
2014,11,13,19,09,1.50
2014,11,13,19,10,1.50
2014,11,13,19,11,1.40
2014,11,13,19,12,1.40
2014,11,13,19,13,1.40
2014,11,13,19,14,1.40
2014,11,13,19,15,1.30
2014,11,13,19,16,1.30
2014,11,13,19,17,1.30
2014,11,13,19,18,1.30
2014,11,13,19,19,1.30
2014,11,13,19,20,1.30
2014,11,13,19,21,1.40
2014,11,13,19,22,1.40
2014,11,13,19,23,1.40
2014,11,13,19,24,1.40
2014,11,13,19,25,1.40
2014,11,13,19,26,1.40
2014,11,13,19,27,1.40
2014,11,13,19,28,1.40
2014,11,13,19,29,1.40
2014,11,13,19,30,1.40
2014,11,13,19,31,1.40
2014,11,13,19,32,1.40
2014,11,13,19,33,1.40
2014,11,13,19,34,1.40
2014,11,13,19,35,1.40
2014,11,13,19,36,1.40
2014,11,13,19,37,1.40
2014,11,13,19,38,1.40
2014,11,13,19,39,1.40
2014,11,13,19,40,1.40
2014,11,13,19,41,1.40
2014,11,13,19,42,1.50
2014,11,13,19,43,1.50
2014,11,13,19,44,1.60
2014,11,13,19,45,1.70
2014,11,13,19,46,1.70
2014,11,13,19,47,1.70
2014,11,13,19,48,1.80
2014,11,13,19,49,1.90
2014,11,13,19,50,1.90
2014,11,13,19,51,2.00
2014,11,13,19,52,2.10
2014,11,13,19,53,2.20
2014,11,13,19,54,2.30
2014,11,13,19,55,2.30
2014,11,13,19,56,2.30
2014,11,13,19,57,2.30
2014,11,13,19,58,2.30
2014,11,13,19,59,2.30
2014,11,13,20,00,2.30
2014,11,13,20,01,2.40
2014,11,13,20,02,2.40
2014,11,13,20,03,2.40
2014,11,13,20,04,2.40
2014,11,13,20,05,2.50
2014,11,13,20,06,2.50
2014,11,13,20,07,2.60
2014,11,13,20,08,2.60
2014,11,13,20,09,2.60
2014,11,13,20,10,2.70
2014,11,13,20,11,2.70
2014,11,13,20,12,2.70
2014,11,13,20,13,2.70
2014,11,13,20,14,2.70
2014,11,13,20,15,2.70
2014,11,13,20,16,2.80
2014,11,13,20,17,2.80
2014,11,13,20,18,3.00
2014,11,13,20,19,3.10
2014,11,13,20,20,3.20
2014,11,13,20,21,3.30
2014,11,13,20,22,3.40
2014,11,13,20,23,3.40
2014,11,13,20,24,3.50
2014,11,13,20,25,3.50
2014,11,13,20,26,3.60
2014,11,13,20,27,3.70
2014,11,13,20,28,3.70
2014,11,13,20,29,3.70
2014,11,13,20,30,3.80
2014,11,13,20,31,3.80
2014,11,13,20,32,3.80
2014,11,13,20,33,3.80
2014,11,13,20,34,3.80
2014,11,13,20,35,3.80
2014,11,13,20,36,3.80
2014,11,13,20,37,3.80
2014,11,13,20,38,3.80
2014,11,13,20,39,3.80
2014,11,13,20,40,3.80
2014,11,13,20,41,3.80
2014,11,13,20,42,3.80
2014,11,13,20,43,3.80
2014,11,13,20,44,3.80
2014,11,13,20,45,3.80
2014,11,13,20,46,3.70
2014,11,13,20,47,3.70
2014,11,13,20,48,3.70
2014,11,13,20,49,3.70
2014,11,13,20,50,3.70
2014,11,13,20,51,3.70
2014,11,13,20,52,3.60
2014,11,13,20,53,3.60
2014,11,13,20,54,3.60
2014,11,13,20,55,3.60
2014,11,13,20,56,3.60
2014,11,13,20,57,3.60
2014,11,13,20,58,3.60
2014,11,13,20,59,3.50
2014,11,13,21,00,3.50
2014,11,13,21,01,3.50
2014,11,13,21,02,3.60
2014,11,13,21,03,3.60
2014,11,13,21,04,3.60
2014,11,13,21,05,3.60
2014,11,13,21,06,3.60
2014,11,13,21,07,3.60
2014,11,13,21,08,3.60
2014,11,13,21,09,3.50
2014,11,13,21,10,3.50
2014,11,13,21,11,3.50
2014,11,13,21,12,3.40
2014,11,13,21,13,3.30
2014,11,13,21,14,3.30
2014,11,13,21,15,3.30
2014,11,13,21,16,3.30
2014,11,13,21,17,3.40
2014,11,13,21,18,3.40
2014,11,13,21,19,3.50
2014,11,13,21,20,3.50
2014,11,13,21,21,3.60
2014,11,13,21,22,3.60
2014,11,13,21,23,3.60
2014,11,13,21,24,3.50
2014,11,13,21,25,3.50
2014,11,13,21,26,3.40
2014,11,13,21,27,3.40
2014,11,13,21,28,3.40
2014,11,13,21,29,3.40
2014,11,13,21,30,3.40
2014,11,13,21,31,3.40
2014,11,13,21,32,3.40
2014,11,13,21,33,3.40
2014,11,13,21,34,3.40
2014,11,13,21,35,3.40
2014,11,13,21,36,3.40
2014,11,13,21,37,3.50
2014,11,13,21,38,3.50
2014,11,13,21,39,3.40
2014,11,13,21,40,3.40
2014,11,13,21,41,3.40
2014,11,13,21,42,3.40
2014,11,13,21,43,3.50
2014,11,13,21,44,3.50
2014,11,13,21,45,3.50
2014,11,13,21,46,3.50
2014,11,13,21,47,3.60
2014,11,13,21,48,3.60
2014,11,13,21,49,3.60
2014,11,13,21,50,3.70
2014,11,13,21,51,3.60
2014,11,13,21,52,3.60
2014,11,13,21,53,3.60
2014,11,13,21,54,3.70
2014,11,13,21,55,3.70
2014,11,13,21,56,3.70
2014,11,13,21,57,3.70
2014,11,13,21,58,3.70
2014,11,13,21,59,3.80
2014,11,13,22,00,3.80
2014,11,13,22,01,3.90
2014,11,13,22,02,3.90
2014,11,13,22,03,3.90
2014,11,13,22,04,3.90
2014,11,13,22,05,3.90
2014,11,13,22,06,3.90
2014,11,13,22,07,3.90
2014,11,13,22,08,3.90
2014,11,13,22,09,3.90
2014,11,13,22,10,3.80
2014,11,13,22,11,3.80
2014,11,13,22,12,3.80
2014,11,13,22,13,3.80
2014,11,13,22,14,3.80
2014,11,13,22,15,3.80
2014,11,13,22,16,3.80
2014,11,13,22,17,3.80
2014,11,13,22,18,3.80
2014,11,13,22,19,3.80
2014,11,13,22,20,3.70
2014,11,13,22,21,3.70
2014,11,13,22,22,3.70
2014,11,13,22,23,3.70
2014,11,13,22,24,3.70
2014,11,13,22,25,3.70
2014,11,13,22,26,3.60
2014,11,13,22,27,3.60
2014,11,13,22,28,3.60
2014,11,13,22,29,3.60
2014,11,13,22,30,3.60
2014,11,13,22,31,3.50
2014,11,13,22,32,3.50
2014,11,13,22,33,3.50
2014,11,13,22,34,3.50
2014,11,13,22,35,3.40
2014,11,13,22,36,3.40
2014,11,13,22,37,3.40
2014,11,13,22,38,3.40
2014,11,13,22,39,3.60
2014,11,13,22,40,3.70
2014,11,13,22,41,3.70
2014,11,13,22,42,3.70
2014,11,13,22,43,3.70
2014,11,13,22,44,3.70
2014,11,13,22,45,3.80
2014,11,13,22,46,3.80
2014,11,13,22,47,3.70
2014,11,13,22,48,3.70
2014,11,13,22,49,3.70
2014,11,13,22,50,3.70
2014,11,13,22,51,3.70
2014,11,13,22,52,3.70
2014,11,13,22,53,3.80
2014,11,13,22,54,3.80
2014,11,13,22,55,3.80
2014,11,13,22,56,3.80
2014,11,13,22,57,3.80
2014,11,13,22,58,3.80
2014,11,13,22,59,3.70
2014,11,13,23,00,3.70
2014,11,13,23,01,3.60
2014,11,13,23,02,3.60
2014,11,13,23,03,3.60
2014,11,13,23,04,3.60
2014,11,13,23,05,3.60
2014,11,13,23,06,3.60
2014,11,13,23,07,3.60
2014,11,13,23,08,3.60
2014,11,13,23,09,3.60
2014,11,13,23,10,3.60
2014,11,13,23,11,3.60
2014,11,13,23,12,3.60
2014,11,13,23,13,3.60
2014,11,13,23,14,3.50
2014,11,13,23,15,3.50
2014,11,13,23,16,3.40
2014,11,13,23,17,3.40
2014,11,13,23,18,3.40
2014,11,13,23,19,3.40
2014,11,13,23,20,3.40
2014,11,13,23,21,3.50
2014,11,13,23,22,3.50
2014,11,13,23,23,3.50
2014,11,13,23,24,3.40
2014,11,13,23,25,3.40
2014,11,13,23,26,3.40
2014,11,13,23,27,3.50
2014,11,13,23,28,3.50
2014,11,13,23,29,3.50
2014,11,13,23,30,3.50
2014,11,13,23,31,3.60
2014,11,13,23,32,3.50
2014,11,13,23,33,3.60
2014,11,13,23,34,3.60
2014,11,13,23,35,3.60
2014,11,13,23,36,3.70
2014,11,13,23,37,3.60
2014,11,13,23,38,3.60
2014,11,13,23,39,3.70
2014,11,13,23,40,3.70
2014,11,13,23,41,3.80
2014,11,13,23,42,4.00
2014,11,13,23,43,4.10
2014,11,13,23,44,4.40
2014,11,13,23,45,4.40
2014,11,13,23,46,4.50
2014,11,13,23,47,4.50
2014,11,13,23,48,4.50
2014,11,13,23,49,4.60
2014,11,13,23,50,4.60
2014,11,13,23,51,4.60
2014,11,13,23,52,4.70
2014,11,13,23,53,4.70
2014,11,13,23,54,4.70
2014,11,13,23,55,4.70
2014,11,13,23,56,4.70
2014,11,13,23,57,4.70
2014,11,13,23,58,4.70
2014,11,13,23,59,4.70
